Home   Weather   Lörrach   Past weeks

Flag for Germany Past Weather in Lörrach, Baden-Württemberg, Germany — Yesterday and Last 2 Weeks

50 °F

Passing clouds.

Feels Like: 48 °F
Forecast: 50 / 60 °F
Wind: 5 mph from South

Location: Bale-Mulhouse

Current Time: Oct 24, 2016 at 3:49:52 AM

Latest Report: Oct 24, 2016 at 3:00 AM

Visibility: N/A

Pressure: 29.89 "Hg

Humidity: 88%

Dew Point: 46 °F

Location of LörrachLocation

Past Weather in Lörrach — Graph


Lörrach Temperature Yesterday

Maximum temperature yesterday: 50 °F (at 9:00 PM)
Minimum temperature yesterday: 32 °F (at 1:30 AM)
Average temperature yesterday: 43 °F

High & Low Weather Summary for the Past Weeks

High66 °F (Oct 15, 5:30 PM)100% (Oct 9, 2:00 AM)30.27 "Hg (Oct 9, 2:00 AM)
Low30 °F (Oct 13, 2:00 AM)51% (Oct 12, 5:00 PM)29.62 "Hg (Oct 14, 5:30 PM)
Average47 °F86%30.04 "Hg
* Reported Oct 9 2:00 AM — Oct 24 2:30 AM, Lörrach, Weather by CustomWeather, © 2016

Note: Actual official high and low records may vary slightly from our data, if they occured in-between our weather recording intervals... More about our weather records


Lörrach Weather History for the Previous 24 Hours

Scroll right to see more
Time TempWeatherWind HumidityBarometerVisibility
2:30 AM
Mon, Oct 24
50 °FClear.6 mph88%29.89 "Hg10 mi
2:00 AM50 °FPassing clouds.6 mph88%29.89 "HgN/A
1:30 AM50 °FPassing clouds.7 mph88%29.89 "HgN/A
1:00 AM50 °FClear.6 mph82%29.89 "Hg10 mi
12:30 AM50 °FClear.7 mph82%29.89 "Hg10 mi
12:00 AM50 °FPassing clouds.5 mph82%29.89 "HgN/A
11:30 PM
Sun, Oct 23
50 °FPassing clouds.7 mph82%29.86 "HgN/A
11:00 PM50 °FMostly cloudy.9 mph82%29.86 "HgN/A
10:30 PM50 °FMostly cloudy.9 mph82%29.86 "HgN/A
10:00 PM50 °FMostly cloudy.8 mph88%29.86 "HgN/A
9:30 PM50 °FMostly cloudy.8 mph82%29.86 "HgN/A
9:00 PM50 °FMostly cloudy.8 mph82%29.86 "HgN/A
8:30 PM48 °FMostly cloudy.8 mph94%29.86 "HgN/A
8:00 PM48 °FMostly cloudy.7 mph94%29.86 "HgN/A
7:30 PM48 °FMostly cloudy.7 mph94%29.86 "HgN/A
7:00 PM48 °FMostly cloudy.8 mph94%29.86 "HgN/A
6:30 PM48 °FLight rain. Partly cloudy.7 mph94%29.86 "Hg5 mi
6:00 PM48 °FLight rain. Partly sunny.8 mph94%29.86 "Hg4 mi
5:30 PM48 °FLight rain. Fog.7 mph94%29.86 "Hg3 mi
5:00 PM48 °FLight rain. Fog.6 mph94%29.86 "Hg3 mi
4:30 PM48 °FLight rain. Fog.3 mph87%29.86 "Hg3 mi
4:00 PM48 °FLight rain. Fog.5 mph87%29.86 "Hg3 mi
3:30 PM48 °FLight rain. Broken clouds.6 mph87%29.86 "Hg4 mi
3:00 PM48 °FBroken clouds.3 mph94%29.86 "Hg4 mi
2:30 PM48 °FLight rain. Fog.1 mph87%29.86 "Hg3 mi
2:00 PM48 °FLight rain. Broken clouds.2 mph87%29.86 "Hg4 mi
1:30 PM46 °FLight rain. Broken clouds.5 mph93%29.89 "Hg4 mi
1:00 PM46 °FLight rain. Fog.3 mph93%29.89 "Hg3 mi
12:30 PM45 °FLight rain. Fog.3 mph93%29.89 "Hg3 mi
12:00 PM45 °FLight rain. Partly sunny.3 mph93%29.89 "Hg4 mi
11:30 AM45 °FLight rain. Partly sunny.5 mph93%29.89 "Hg4 mi
11:00 AM45 °FLight rain. Partly sunny.7 mph93%29.89 "Hg4 mi
10:30 AM45 °FLight rain. Partly sunny.2 mph93%29.86 "Hg5 mi
10:00 AM43 °FPartly sunny.3 mph93%29.86 "HgN/A
9:30 AM41 °FLight rain. Partly sunny.3 mph100%29.86 "Hg6 mi
9:00 AM41 °FPartly sunny.3 mph93%29.89 "HgN/A
8:30 AM41 °FBroken clouds.3 mph93%29.86 "Hg6 mi
8:00 AM39 °FPartly cloudy.3 mph100%29.86 "Hg6 mi
7:30 AM41 °FPassing clouds.3 mph93%29.86 "Hg5 mi
7:00 AM39 °FLight rain. Passing clouds.2 mph100%29.86 "Hg5 mi
6:30 AM39 °FClear.2 mph100%29.89 "Hg6 mi
6:00 AM39 °FClear.2 mph100%29.86 "Hg6 mi
5:30 AM39 °FClear.3 mph100%29.89 "Hg10 mi
5:00 AM39 °FClear.No wind93%29.89 "Hg10 mi
4:30 AM37 °FClear.2 mph100%29.89 "Hg10 mi
4:00 AM37 °FClear.2 mph100%29.89 "Hg4 mi
3:30 AM37 °FClear.2 mph93%29.92 "Hg4 mi
3:00 AM36 °FClear.2 mph100%29.92 "Hg4 mi
Weather by CustomWeather, © 2016

See weather overviewHow to use our weather pages